Time,TemperatureF,DewpointF,PressureIn,WindDirection,WindDirectionDegrees,WindSpeedMPH,WindSpeedGustMPH,Humidity,HourlyPrecipIn,Conditions,Clouds,dailyrainin,SoftwareType,DateUTC
2013-01-11 00:03:00,51.6,51.1,29.93,NNE,22,1.7,-999.0,98,-99.99,,,0.00,Acu-Link.com,2013-01-11 05:03:00,
2013-01-11 00:18:00,51.6,51.1,29.93,ENE,67,1.1,-999.0,98,-99.99,,,0.00,Acu-Link.com,2013-01-11 05:18:00,
2013-01-11 00:33:00,51.6,51.1,29.91,ENE,67,0.0,-999.0,98,-99.99,,,0.00,Acu-Link.com,2013-01-11 05:33:00,
2013-01-11 00:49:00,51.4,50.9,29.91,North,0,0.0,-999.0,98,-99.99,,,0.00,Acu-Link.com,2013-01-11 05:49:00,
2013-01-11 01:04:00,51.4,50.9,29.90,NW,315,2.2,-999.0,98,-99.99,,,0.00,Acu-Link.com,2013-01-11 06:04:00,
2013-01-11 01:19:00,51.6,51.1,29.91,NNW,337,2.2,-999.0,98,-99.99,,,0.00,Acu-Link.com,2013-01-11 06:19:00,
2013-01-11 01:35:00,51.8,51.3,29.90,East,90,2.2,-999.0,98,-99.99,,,0.00,Acu-Link.com,2013-01-11 06:35:00,
2013-01-11 01:50:00,53.6,53.0,29.92,NW,315,1.1,-999.0,98,-99.99,,,0.00,Acu-Link.com,2013-01-11 06:50:00,
2013-01-11 02:05:00,56.1,52.0,29.91,ESE,112,1.7,-999.0,86,-99.99,,,0.00,Acu-Link.com,2013-01-11 07:05:00,
2013-01-11 02:21:00,62.6,53.4,29.91,SSE,157,5.8,-999.0,72,-99.99,,,0.00,Acu-Link.com,2013-01-11 07:21:00,
2013-01-11 02:36:00,64.9,53.7,29.89,South,180,2.2,-999.0,67,-99.99,,,0.00,Acu-Link.com,2013-01-11 07:36:00,
2013-01-11 02:51:00,66.0,53.9,29.88,South,180,3.7,-999.0,65,-99.99,,,0.00,Acu-Link.com,2013-01-11 07:51:00,
2013-01-11 03:06:00,65.8,53.7,29.88,SSE,157,4.7,-999.0,65,-99.99,,,0.00,Acu-Link.com,2013-01-11 08:06:00,
2013-01-11 03:22:00,63.1,52.8,29.87,NNE,22,3.2,-999.0,69,-99.99,,,0.00,Acu-Link.com,2013-01-11 08:22:00,
2013-01-11 03:37:00,59.0,52.1,29.88,SSE,157,1.7,-999.0,78,-99.99,,,0.00,Acu-Link.com,2013-01-11 08:37:00,
2013-01-11 03:52:00,61.7,54.1,29.87,SE,135,5.8,-999.0,76,-99.99,,,0.00,Acu-Link.com,2013-01-11 08:52:00,
2013-01-11 04:11:00,63.9,54.7,29.87,West,270,1.7,-999.0,72,-99.99,,,0.00,Acu-Link.com,2013-01-11 09:11:00,
2013-01-11 04:26:00,60.6,52.6,29.86,NE,45,2.7,-999.0,75,-99.99,,,0.00,Acu-Link.com,2013-01-11 09:26:00,
2013-01-11 04:41:00,57.4,51.3,29.87,NNE,22,2.7,-999.0,80,-99.99,,,0.00,Acu-Link.com,2013-01-11 09:41:00,
2013-01-11 04:57:00,56.1,51.3,29.86,ESE,112,2.7,-999.0,84,-99.99,,,0.00,Acu-Link.com,2013-01-11 09:57:00,
2013-01-11 05:12:00,55.6,51.2,29.85,East,90,3.7,-999.0,85,-99.99,,,0.00,Acu-Link.com,2013-01-11 10:12:00,
2013-01-11 05:27:00,55.6,51.2,29.86,ESE,112,1.7,-999.0,85,-99.99,,,0.00,Acu-Link.com,2013-01-11 10:27:00,
2013-01-11 05:42:00,55.2,51.1,29.85,NE,45,1.1,-999.0,86,-99.99,,,0.00,Acu-Link.com,2013-01-11 10:42:00,
2013-01-11 05:57:00,55.2,51.4,29.86,North,0,2.7,-999.0,87,-99.99,,,0.00,Acu-Link.com,2013-01-11 10:57:00,
2013-01-11 06:12:00,54.9,52.0,29.86,ENE,67,0.0,-999.0,90,-99.99,,,0.00,Acu-Link.com,2013-01-11 11:12:00,
2013-01-11 06:28:00,54.5,53.9,29.88,NNE,22,0.0,-999.0,98,-99.99,,,0.00,Acu-Link.com,2013-01-11 11:28:00,
2013-01-11 06:43:00,54.1,53.5,29.88,ENE,67,2.2,-999.0,98,-99.99,,,0.00,Acu-Link.com,2013-01-11 11:43:00,
2013-01-11 06:58:00,54.0,53.4,29.89,ENE,67,0.0,-999.0,98,-99.99,,,0.00,Acu-Link.com,2013-01-11 11:58:00,
2013-01-11 07:14:00,54.0,53.4,29.87,NE,45,0.0,-999.0,98,-99.99,,,0.00,Acu-Link.com,2013-01-11 12:14:00,
2013-01-11 07:29:00,54.0,53.4,29.87,South,180,0.0,-999.0,98,-99.99,,,0.00,Acu-Link.com,2013-01-11 12:29:00,
2013-01-11 07:44:00,54.1,53.5,29.88,ESE,112,1.1,-999.0,98,-99.99,,,0.00,Acu-Link.com,2013-01-11 12:44:00,
2013-01-11 08:00:00,54.1,53.5,29.88,ENE,67,2.2,-999.0,98,-99.99,,,0.00,Acu-Link.com,2013-01-11 13:00:00,
2013-01-11 08:15:00,54.1,53.5,29.88,North,0,1.7,-999.0,98,-99.99,,,0.00,Acu-Link.com,2013-01-11 13:15:00,
2013-01-11 08:30:00,54.1,53.5,29.87,NNE,22,0.0,-999.0,98,-99.99,,,0.00,Acu-Link.com,2013-01-11 13:30:00,
2013-01-11 08:45:00,54.5,53.9,29.87,East,90,0.0,-999.0,98,-99.99,,,0.00,Acu-Link.com,2013-01-11 13:45:00,
2013-01-11 09:01:00,55.0,54.4,29.88,South,180,0.0,-999.0,98,-99.99,,,0.00,Acu-Link.com,2013-01-11 14:01:00,
2013-01-11 09:16:00,55.2,54.6,29.87,East,90,0.0,-999.0,98,-99.99,,,0.00,Acu-Link.com,2013-01-11 14:16:00,
2013-01-11 09:31:00,55.6,55.0,29.88,ENE,67,0.0,-999.0,98,-99.99,,,0.00,Acu-Link.com,2013-01-11 14:31:00,
2013-01-11 09:47:00,55.8,55.2,29.89,ENE,67,0.0,-999.0,98,-99.99,,,0.00,Acu-Link.com,2013-01-11 14:47:00,
2013-01-11 10:02:00,56.1,55.5,29.90,ENE,67,0.0,-999.0,98,-99.99,,,0.00,Acu-Link.com,2013-01-11 15:02:00,
2013-01-11 10:17:00,56.3,55.7,29.89,NE,45,1.1,-999.0,98,-99.99,,,0.01,Acu-Link.com,2013-01-11 15:17:00,
2013-01-11 10:33:00,57.9,57.3,29.89,ENE,67,1.7,-999.0,98,-99.99,,,0.01,Acu-Link.com,2013-01-11 15:33:00,
2013-01-11 10:48:00,59.2,58.6,29.89,SW,225,2.2,-999.0,98,-99.99,,,0.01,Acu-Link.com,2013-01-11 15:48:00,
2013-01-11 11:03:00,63.0,62.4,29.89,South,180,2.7,-999.0,98,-99.99,,,0.01,Acu-Link.com,2013-01-11 16:03:00,
2013-01-11 11:18:00,63.9,63.3,29.89,SSE,157,2.2,-999.0,98,-99.99,,,0.01,Acu-Link.com,2013-01-11 16:18:00,
2013-01-11 11:34:00,64.8,61.8,29.89,South,180,4.2,-999.0,90,-99.99,,,0.01,Acu-Link.com,2013-01-11 16:34:00,
2013-01-11 11:49:00,64.9,63.1,29.88,SSW,202,4.7,-999.0,94,-99.99,,,0.01,Acu-Link.com,2013-01-11 16:49:00,
2013-01-11 12:04:00,64.4,63.8,29.86,SSW,202,4.2,-999.0,98,-99.99,,,0.01,Acu-Link.com,2013-01-11 17:04:00,
2013-01-11 12:19:00,64.4,63.8,29.86,South,180,2.7,-999.0,98,-99.99,,,0.01,Acu-Link.com,2013-01-11 17:19:00,
2013-01-11 12:35:00,65.1,64.2,29.84,West,270,4.7,-999.0,97,-99.99,,,0.01,Acu-Link.com,2013-01-11 17:35:00,
2013-01-11 12:50:00,66.7,62.4,29.84,SSW,202,3.7,-999.0,86,-99.99,,,0.01,Acu-Link.com,2013-01-11 17:50:00,
2013-01-11 13:05:00,66.6,62.6,29.85,WSW,247,7.3,-999.0,87,-99.99,,,0.01,Acu-Link.com,2013-01-11 18:05:00,
2013-01-11 13:21:00,68.5,63.1,29.84,SSW,202,5.3,-999.0,83,-99.99,,,0.01,Acu-Link.com,2013-01-11 18:21:00,
2013-01-11 13:36:00,68.0,63.0,29.83,SSE,157,4.7,-999.0,84,-99.99,,,0.01,Acu-Link.com,2013-01-11 18:36:00,
2013-01-11 13:51:00,68.2,62.5,29.83,West,270,3.7,-999.0,82,-99.99,,,0.01,Acu-Link.com,2013-01-11 18:51:00,
2013-01-11 14:07:00,67.8,62.1,29.84,WSW,247,5.3,-999.0,82,-99.99,,,0.01,Acu-Link.com,2013-01-11 19:07:00,
2013-01-11 14:22:00,68.7,63.0,29.83,SSW,202,2.7,-999.0,82,-99.99,,,0.01,Acu-Link.com,2013-01-11 19:22:00,
2013-01-11 14:37:00,68.4,62.7,29.83,South,180,2.7,-999.0,82,-99.99,,,0.01,Acu-Link.com,2013-01-11 19:37:00,
2013-01-11 14:52:00,67.6,62.2,29.84,WSW,247,1.7,-999.0,83,-99.99,,,0.01,Acu-Link.com,2013-01-11 19:52:00,
2013-01-11 15:08:00,68.5,62.8,29.83,SE,135,6.3,-999.0,82,-99.99,,,0.01,Acu-Link.com,2013-01-11 20:08:00,
2013-01-11 15:23:00,69.3,62.5,29.82,SE,135,3.2,-999.0,79,-99.99,,,0.01,Acu-Link.com,2013-01-11 20:23:00,
2013-01-11 15:38:00,69.4,62.6,29.82,SE,135,7.3,-999.0,79,-99.99,,,0.01,Acu-Link.com,2013-01-11 20:38:00,
2013-01-11 15:54:00,70.2,62.3,29.82,South,180,2.2,-999.0,76,-99.99,,,0.01,Acu-Link.com,2013-01-11 20:54:00,
2013-01-11 16:09:00,70.3,62.0,29.82,SSW,202,3.7,-999.0,75,-99.99,,,0.01,Acu-Link.com,2013-01-11 21:09:00,
2013-01-11 16:24:00,69.1,61.9,29.82,South,180,5.8,-999.0,78,-99.99,,,0.01,Acu-Link.com,2013-01-11 21:24:00,
2013-01-11 16:40:00,68.2,61.8,29.83,SSW,202,2.7,-999.0,80,-99.99,,,0.01,Acu-Link.com,2013-01-11 21:40:00,
2013-01-11 16:55:00,67.6,61.6,29.83,SW,225,1.7,-999.0,81,-99.99,,,0.01,Acu-Link.com,2013-01-11 21:55:00,
2013-01-11 17:10:00,67.5,61.5,29.82,WSW,247,4.2,-999.0,81,-99.99,,,0.01,Acu-Link.com,2013-01-11 22:10:00,
2013-01-11 17:25:00,66.7,61.4,29.83,SSW,202,3.2,-999.0,83,-99.99,,,0.01,Acu-Link.com,2013-01-11 22:25:00,
2013-01-11 17:41:00,66.4,61.4,29.84,SW,225,1.1,-999.0,84,-99.99,,,0.01,Acu-Link.com,2013-01-11 22:41:00,
2013-01-11 17:56:00,65.8,61.2,29.85,SW,225,2.7,-999.0,85,-99.99,,,0.01,Acu-Link.com,2013-01-11 22:56:00,
2013-01-11 18:11:00,65.8,61.5,29.84,SW,225,2.7,-999.0,86,-99.99,,,0.01,Acu-Link.com,2013-01-11 23:11:00,
2013-01-11 18:27:00,65.7,61.4,29.84,SSE,157,3.2,-999.0,86,-99.99,,,0.01,Acu-Link.com,2013-01-11 23:27:00,
2013-01-11 18:42:00,64.9,60.9,29.84,NW,315,0.0,-999.0,87,-99.99,,,0.01,Acu-Link.com,2013-01-11 23:42:00,
2013-01-11 18:57:00,64.8,61.2,29.84,South,180,1.7,-999.0,88,-99.99,,,0.01,Acu-Link.com,2013-01-11 23:57:00,
2013-01-11 19:13:00,64.6,61.0,29.84,SSW,202,1.7,-999.0,88,-99.99,,,0.01,Acu-Link.com,2013-01-12 00:13:00,
2013-01-11 19:28:00,64.8,61.2,29.85,SSW,202,3.7,-999.0,88,-99.99,,,0.01,Acu-Link.com,2013-01-12 00:28:00,
2013-01-11 19:43:00,64.4,61.1,29.85,WSW,247,3.2,-999.0,89,-99.99,,,0.01,Acu-Link.com,2013-01-12 00:43:00,
2013-01-11 19:58:00,63.9,60.6,29.85,SW,225,1.7,-999.0,89,-99.99,,,0.01,Acu-Link.com,2013-01-12 00:58:00,
2013-01-11 20:14:00,63.9,60.9,29.86,South,180,1.1,-999.0,90,-99.99,,,0.01,Acu-Link.com,2013-01-12 01:14:00,
2013-01-11 20:29:00,64.4,61.1,29.85,SSW,202,2.2,-999.0,89,-99.99,,,0.01,Acu-Link.com,2013-01-12 01:29:00,
2013-01-11 20:44:00,64.4,61.1,29.85,SSW,202,1.7,-999.0,89,-99.99,,,0.01,Acu-Link.com,2013-01-12 01:44:00,
2013-01-11 21:00:00,64.4,61.1,29.85,South,180,3.2,-999.0,89,-99.99,,,0.01,Acu-Link.com,2013-01-12 02:00:00,
2013-01-11 21:15:00,64.4,61.1,29.85,South,180,2.2,-999.0,89,-99.99,,,0.01,Acu-Link.com,2013-01-12 02:15:00,
2013-01-11 21:30:00,65.3,61.7,29.86,SSW,202,3.7,-999.0,88,-99.99,,,0.01,Acu-Link.com,2013-01-12 02:30:00,
2013-01-11 21:46:00,65.5,61.5,29.85,SSE,157,2.2,-999.0,87,-99.99,,,0.01,Acu-Link.com,2013-01-12 02:46:00,
2013-01-11 22:01:00,65.5,61.8,29.86,SW,225,2.2,-999.0,88,-99.99,,,0.01,Acu-Link.com,2013-01-12 03:01:00,
2013-01-11 22:16:00,66.0,62.0,29.87,SSW,202,5.3,-999.0,87,-99.99,,,0.01,Acu-Link.com,2013-01-12 03:16:00,
2013-01-11 22:31:00,64.9,64.3,29.87,South,180,2.7,-999.0,98,-99.99,,,0.01,Acu-Link.com,2013-01-12 03:31:00,
2013-01-11 22:46:00,64.8,64.2,29.87,West,270,2.2,-999.0,98,-99.99,,,0.01,Acu-Link.com,2013-01-12 03:46:00,
2013-01-11 23:02:00,64.4,63.8,29.86,WSW,247,2.7,-999.0,98,-99.99,,,0.01,Acu-Link.com,2013-01-12 04:02:00,
2013-01-11 23:17:00,64.2,63.6,29.86,SSW,202,2.2,-999.0,98,-99.99,,,0.01,Acu-Link.com,2013-01-12 04:17:00,
2013-01-11 23:32:00,64.2,63.6,29.86,SSW,202,1.7,-999.0,98,-99.99,,,0.01,Acu-Link.com,2013-01-12 04:32:00,
2013-01-11 23:48:00,64.2,63.6,29.86,WNW,292,2.7,-999.0,98,-99.99,,,0.01,Acu-Link.com,2013-01-12 04:48:00,